Location: Unspecified
(40.7945°N, 111.1337°W)
Time: 18:29:32
(UTC-06:00)

Vanguard 1 - Visible Passes

Search period start: 15 June 2019 00:00
Search period end: 25 June 2019 00:00
Orbit: 654 x 3830 km, 34.2° (Epoch: 14 June)

Date Brightness Start Highest point End Pass type
(mag) Time Alt. Az. Time Alt. Az. Time Alt. Az.
15 Jun 12.6 04:03:40 15° SSW 04:12:56 26° SSE 04:20:54 10° ESE visible
16 Jun 13.4 02:10:19 13° SSE 02:11:11 13° SE 02:16:58 10° ESE visible
16 Jun 12.4 04:22:59 14° SSW 04:34:09 33° SSE 04:42:26 10° E visible
17 Jun 13.2 02:29:34 18° SSE 02:32:28 19° SSE 02:40:56 10° ESE visible
17 Jun 12.1 04:42:13 12° SW 04:55:21 39° SSE 05:03:42 10° E visible
18 Jun 12.9 02:48:43 22° S 02:53:44 25° SSE 03:03:22 10° E visible
18 Jun 11.9 05:01:43 10° SW 05:16:32 46° SSE 05:24:48 10° E visible
19 Jun 13.6 00:55:09 10° SE 00:55:09 10° SE 00:55:40 10° SE visible
19 Jun 12.7 03:07:47 24° S 03:14:58 32° SSE 03:25:10 10° E visible
20 Jun 13.4 01:14:08 17° SE 01:14:08 17° SE 01:21:49 10° ESE visible
20 Jun 12.5 03:26:46 24° SSW 03:36:13 39° SSE 03:46:37 10° E visible
21 Jun 13.2 01:32:59 23° SSE 01:33:53 23° SE 01:44:59 10° E visible
21 Jun 12.3 03:45:37 22° SW 03:57:27 46° SSE 04:07:51 10° E visible
22 Jun 13.0 01:51:43 29° SSE 01:55:06 30° SSE 02:07:11 10° E visible
22 Jun 12.1 04:04:20 17° SW 04:18:41 52° SSE 04:28:58 10° E visible
22 Jun 13.6 23:57:42 12° ESE 23:57:42 12° ESE 00:00:41 10° ESE visible
23 Jun 12.8 02:10:17 31° S 02:16:19 37° SSE 02:28:55 10° E visible
23 Jun 12.0 04:22:53 12° WSW 04:39:54 58° S 04:49:58 10° E visible
24 Jun 13.4 00:16:05 20° SE 00:16:05 20° SE 00:25:18 10° E visible
24 Jun 12.6 02:28:39 31° SSW 02:37:34 44° SSE 02:50:20 10° E visible
24 Jun 11.9 04:43:03 10° WSW 05:01:08 62° S 05:10:55 10° E visible
